• In Germany
  • List of Countries
  • For 7 days
  • Water Temperature
  • Satellite Maps
  • Weather Map
  • Weather Widgets
  • user-avatar
    Login

    Hourly Weather Artashat

    Today, 25 November, Saturday

    Time Temperature Precipitation Wind Pressure Humidity
    00:00 -9°C° 0 mm 2 mps 599 mmHg 50%
    01:00 -9°C° 0 mm 2 mps 599 mmHg 52%
    02:00 -9°C° 0 mm 2 mps 599 mmHg 54%
    03:00 -9°C° 0 mm 2 mps 599 mmHg 56%
    04:00 -9°C° 0 mm 2 mps 599 mmHg 58%
    05:00 -9°C° 0 mm 2 mps 600 mmHg 60%
    06:00 -8°C° 0 mm 2 mps 600 mmHg 62%
    07:00 -8°C° 0 mm 2 mps 601 mmHg 60%
    08:00 -7°C° 0 mm 2 mps 601 mmHg 59%
    09:00 -7°C° 0 mm 2 mps 602 mmHg 57%
    10:00 -6°C° 0 mm 2 mps 602 mmHg 52%
    11:00 -5°C° 0 mm 2 mps 602 mmHg 48%
    12:00 -4°C° 0 mm 2 mps 603 mmHg 44%
    13:00 -4°C° 0 mm 2 mps 603 mmHg 43%
    14:00 -4°C° 0 mm 2 mps 603 mmHg 43%
    15:00 -2°C° 0 mm 1 mps 603 mmHg 42%
    16:00 -5°C° 0 mm 2 mps 603 mmHg 47%
    17:00 -6°C° 0 mm 2 mps 603 mmHg 51%
    18:00 -7°C° 0 mm 2 mps 603 mmHg 55%
    19:00 -7°C° 0 mm 2 mps 603 mmHg 56%
    20:00 -8°C° 0 mm 2 mps 603 mmHg 57%
    21:00 -8°C° 0 mm 2 mps 603 mmHg 58%
    22:00 -8°C° 0 mm 2 mps 603 mmHg 58%
    23:00 -7°C° 0 mm 1 mps 603 mmHg 58%

    Tomorrow, 26 November, Sunday

    Time Temperature Precipitation Wind Pressure Humidity
    00:00 -8°C° 0 mm 1 mps 603 mmHg 57%
    01:00 -8°C° 0 mm 1 mps 603 mmHg 56%
    02:00 -8°C° 0 mm 1 mps 603 mmHg 56%
    03:00 -8°C° 0 mm 1 mps 603 mmHg 55%
    04:00 -8°C° 0 mm 1 mps 602 mmHg 54%
    05:00 -8°C° 0 mm 1 mps 602 mmHg 54%
    06:00 -8°C° 0 mm 1 mps 602 mmHg 54%
    07:00 -7°C° 0 mm 1 mps 602 mmHg 50%
    08:00 -6°C° 0 mm 1 mps 603 mmHg 47%
    09:00 -4°C° 0 mm 1 mps 603 mmHg 44%
    10:00 -2°C° 0 mm 1 mps 603 mmHg 42%
    11:00 -1°C° 0 mm 1 mps 603 mmHg 40%
    12:00 -2°C° 0 mm 2 mps 603 mmHg 38%
    13:00 -2°C° 0 mm 2 mps 602 mmHg 38%
    14:00 -2°C° 0 mm 2 mps 602 mmHg 39%
    15:00 -1°C° 0 mm 2 mps 602 mmHg 39%
    16:00 -3°C° 0 mm 2 mps 601 mmHg 43%
    17:00 -4°C° 0 mm 2 mps 601 mmHg 47%
    18:00 -6°C° 0 mm 2 mps 601 mmHg 51%
    19:00 -4°C° 0 mm 1 mps 601 mmHg 51%
    20:00 -4°C° 0 mm 1 mps 601 mmHg 52%
    21:00 -4°C° 0 mm 1 mps 601 mmHg 52%
    22:00 -4°C° 0 mm 1 mps 601 mmHg 52%
    23:00 -6°C° 0 mm 1 mps 601 mmHg 53%

    Day after tomorrow, 27 November, Monday

    Time Temperature Precipitation Wind Pressure Humidity
    00:00 -6°C° 0 mm 1 mps 601 mmHg 53%
    01:00 -6°C° 0 mm 1 mps 600 mmHg 54%
    02:00 -6°C° 0 mm 1 mps 600 mmHg 55%
    03:00 -6°C° 0 mm 1 mps 600 mmHg 55%
    04:00 -6°C° 0 mm 1 mps 600 mmHg 56%
    05:00 -7°C° 0 mm 1 mps 600 mmHg 57%
    06:00 -7°C° 0 mm 1 mps 600 mmHg 58%
    07:00 -4°C° 0 mm 1 mps 600 mmHg 55%
    08:00 -3°C° 0 mm 1 mps 601 mmHg 52%
    09:00 -2°C° 0 mm 1 mps 602 mmHg 49%
    10:00 -1°C° 0 mm 1 mps 602 mmHg 47%
    11:00 +1°C° 0 mm 1 mps 601 mmHg 45%
    12:00 +2°C° 0 mm 1 mps 601 mmHg 43%
    13:00 +1°C° 0 mm 2 mps 601 mmHg 43%
    14:00 +1°C° 0 mm 2 mps 601 mmHg 43%
    15:00 +1°C° 0 mm 2 mps 601 mmHg 43%
    16:00 -1°C° 0 mm 2 mps 600 mmHg 48%
    17:00 -3°C° 0 mm 2 mps 600 mmHg 52%
    18:00 -4°C° 0 mm 2 mps 599 mmHg 57%
    19:00 -5°C° 0 mm 2 mps 600 mmHg 57%
    20:00 -3°C° 0 mm 1 mps 600 mmHg 58%
    21:00 -3°C° 0 mm 1 mps 600 mmHg 59%
    22:00 -3°C° 0 mm 1 mps 600 mmHg 59%
    23:00 -4°C° 0 mm 1 mps 600 mmHg 60%

    28 November, Tuesday

    Time Temperature Precipitation Wind Pressure Humidity
    00:00 -4°C° 0 mm 1 mps 600 mmHg 61%
    01:00 -4°C° 0 mm 1 mps 600 mmHg 61%
    02:00 -4°C° 0 mm 1 mps 600 mmHg 62%
    03:00 -4°C° 0 mm 1 mps 600 mmHg 63%
    04:00 -4°C° 0 mm 1 mps 600 mmHg 64%
    05:00 -6°C° 0 mm 1 mps 600 mmHg 64%
    06:00 -6°C° 0 mm 1 mps 600 mmHg 65%
    07:00 -3°C° 0 mm 1 mps 600 mmHg 61%
    08:00 -2°C° 0 mm 1 mps 601 mmHg 56%
    09:00 -1°C° 0 mm 1 mps 602 mmHg 52%
    10:00 0°C° 0 mm 1 mps 602 mmHg 50%
    11:00 +1°C° 0 mm 1 mps 602 mmHg 48%
    12:00 +1°C° 0 mm 2 mps 602 mmHg 45%
    13:00 +2°C° 0 mm 2 mps 602 mmHg 46%
    14:00 +2°C° 0 mm 2 mps 601 mmHg 46%
    15:00 +2°C° 0 mm 2 mps 601 mmHg 46%
    16:00 +1°C° 0 mm 2 mps 601 mmHg 50%
    17:00 -2°C° 0 mm 2 mps 601 mmHg 54%
    18:00 -1°C° 0 mm 1 mps 601 mmHg 58%
    19:00 -1°C° 0 mm 1 mps 601 mmHg 59%
    20:00 -1°C° 0 mm 1 mps 601 mmHg 60%
    21:00 -2°C° 0 mm 1 mps 601 mmHg 60%
    22:00 -2°C° 0 mm 1 mps 601 mmHg 61%
    23:00 -2°C° 0 mm 1 mps 601 mmHg 62%

    29 November, Wednesday

    Time Temperature Precipitation Wind Pressure Humidity
    00:00 -2°C° 0 mm 1 mps 601 mmHg 62%
    01:00 -3°C° 0 mm 1 mps 601 mmHg 63%
    02:00 -3°C° 0 mm 1 mps 601 mmHg 63%
    03:00 -3°C° 0 mm 1 mps 601 mmHg 64%
    04:00 -3°C° 0 mm 1 mps 601 mmHg 64%
    05:00 -3°C° 0 mm 1 mps 601 mmHg 65%
    06:00 -3°C° 0 mm 1 mps 601 mmHg 66%
    07:00 -2°C° 0 mm 1 mps 602 mmHg 61%
    08:00 0°C° 0 mm 1 mps 602 mmHg 57%
    09:00 +1°C° 0 mm 1 mps 603 mmHg 52%
    10:00 +2°C° 0 mm 1 mps 603 mmHg 51%
    11:00 +2°C° 0 mm 2 mps 603 mmHg 49%
    12:00 +3°C° 0 mm 2 mps 603 mmHg 47%
    13:00 +3°C° 0 mm 2 mps 602 mmHg 48%
    14:00 +3°C° 0 mm 2 mps 602 mmHg 48%
    15:00 +3°C° 0 mm 2 mps 602 mmHg 49%
    16:00 +2°C° 0 mm 2 mps 602 mmHg 53%
    17:00 +2°C° 0 mm 1 mps 601 mmHg 56%
    18:00 +1°C° 0 mm 1 mps 601 mmHg 60%
    19:00 +1°C° 0 mm 1 mps 601 mmHg 61%
    20:00 +1°C° 0 mm 1 mps 601 mmHg 62%
    21:00 0°C° 0 mm 1 mps 601 mmHg 63%
    22:00 0°C° 0 mm 1 mps 601 mmHg 64%
    23:00 0°C° 0 mm 1 mps 600 mmHg 64%

    30 November, Thursday

    Time Temperature Precipitation Wind Pressure Humidity
    00:00 0°C° 0 mm 1 mps 600 mmHg 65%
    01:00 0°C° 0.1 mm 1 mps 600 mmHg 66%
    02:00 0°C° 0.1 mm 1 mps 600 mmHg 66%
    03:00 0°C° 0.1 mm 1 mps 600 mmHg 67%
    04:00 0°C° 0.2 mm 1 mps 600 mmHg 69%
    05:00 0°C° 0.2 mm 1 mps 600 mmHg 70%
    06:00 0°C° 0.2 mm 1 mps 600 mmHg 71%
    07:00 0°C° 0.3 mm 1 mps 600 mmHg 71%
    08:00 +1°C° 0.3 mm 1 mps 601 mmHg 70%
    09:00 +1°C° 0.3 mm 1 mps 601 mmHg 69%
    10:00 +2°C° 0.2 mm 1 mps 601 mmHg 68%
    11:00 +2°C° 0.2 mm 1 mps 601 mmHg 68%
    12:00 +3°C° 0.2 mm 1 mps 601 mmHg 67%
    13:00 +3°C° 0.1 mm 1 mps 600 mmHg 67%
    14:00 +3°C° 0.1 mm 1 mps 600 mmHg 67%
    15:00 +3°C° 0.1 mm 1 mps 600 mmHg 67%
    16:00 +2°C° 0.1 mm 1 mps 600 mmHg 69%
    17:00 +1°C° 0.1 mm 1 mps 600 mmHg 72%
    18:00 -1°C° 0.1 mm 0 mps 600 mmHg 75%
    19:00 -1°C° 0.1 mm 0 mps 600 mmHg 76%
    20:00 -1°C° 0.1 mm 0 mps 601 mmHg 76%
    21:00 -2°C° 0.1 mm 0 mps 601 mmHg 77%
    22:00 -2°C° 0.1 mm 0 mps 601 mmHg 78%
    23:00 -2°C° 0.1 mm 0 mps 601 mmHg 79%
    Show more